Location: Chircca
(13.7944°S, 72.0608°W)
Time: 06:15:23
(UTC+00:00)

Cosmos 1570 Rocket - Pass Details

Date: 14 July 2020
Orbit: 763 x 788 km, 74.1° (Epoch: 14 August)

Event Time Altitude Azimuth Distance (km) Brightness Sun altitude
Rises 09:35:16 0° 348° (NNW) 3,243 7.3 -23.1°
Reaches altitude 10° 09:37:38 10° 348° (NNW) 2,325 6.6 -22.6°
Maximum altitude 09:42:56 88° 78° (ENE) 791 4.0 -21.3°
Drops below altitude 10° 09:48:18 10° 166° (SSE) 2,357 6.5 -20.1°
Sets 09:50:43 0° 166° (SSE) 3,292 7.2 -19.6°
